Simultaneous Nadir Overpasses (SNOs) Predictions

Prediction of SNOs between NOAA-19 and METOP-C Satellite Orbit:

Table of predicted SNOs for the next 14.0 days since TLE Epoch: 11/2/2024
Index Date (NOAA-19) Time (NOAA-19) Lat,Lon (NOAA-19) SZA (NOAA-19 ) Date (METOP-C) Time (METOP-C) Lat,Lon (METOP-C) SZA (METOP-C ) Distance(km) Time Diff (sec)
1 11/04/2024 08:17:13 -48.87,-151.43 112.56 11/04/2024 08:18:20 -48.92,-151.73 112.51 22.73 67
2 11/04/2024 09:08:36 47.56, 15.25 66.39 11/04/2024 09:09:20 47.62, 15.07 66.45 15.48 44
3 11/04/2024 09:59:45 -46.88,-177.77 114.15 11/04/2024 10:00:17 -46.88,-177.92 114.14 11.12 32
4 11/04/2024 10:51:08 45.57, -11.05 64.81 11/04/2024 10:51:17 45.57, -11.09 64.81 2.84 9
5 11/04/2024 11:42:00 -45.86, 156.33 114.95 11/04/2024 11:41:56 -45.88, 156.35 114.94 2.18 4
6 11/04/2024 12:30:32 54.31, -32.47 71.98 11/04/2024 12:30:07 54.29, -32.50 71.99 2.56 25
7 11/04/2024 13:20:52 -56.40, 136.00 106.26 11/04/2024 13:20:14 -56.39, 135.98 106.24 2.17 38
8 11/04/2024 14:10:56 59.55, -54.68 76.44 11/04/2024 14:09:56 59.55, -54.67 76.47 0.58 60



Historial Predications of SNOs between NOAA-19 and METOP-C
